Location: Asheville, NC
(35.6000°N, 82.5500°W)
Time: 20:18:43
(UTC-04:00)

FALCONSAT 3 - Pass Details

Date: 17 March 2018
Orbit: 461 x 463 km, 35.4° (Epoch: 24 June)

Event Time Altitude Azimuth Distance (km) Brightness Sun altitude
Exits shadow 05:57:08 62° 164° (SSE) 521 ? -21.2°
Drops below altitude 10° 06:00:30 10° 111° (ESE) 1,603 ? -20.5°
Sets 06:02:41 0° 108° (ESE) 2,477 ? -20.1°
